DW7831 Weather Reports


time (UTC)temp
C
wind
direction
speed
KPH
gust
KPH
rain 1hr
cm
rain 24hr
cm
rain mn
cm
humidity
%
barometer
mb
20260902044529 18 67 0.0 0.0 0.00 0.00 0.00 100 1017.6
20260902043024 18 67 0.0 0.0 0.00 0.00 0.00 100 1017.5
20260902041520 18 74 3.2 0.0 0.00 0.00 0.00 100 1017.5
20260902040016 18 60 3.2 0.0 0.00 0.00 0.00 100 1017.3
20260902034513 18 71 3.2 0.0 0.00 0.00 0.28 100 1017.1
20260902033012 18 73 1.6 0.0 0.00 0.00 0.28 100 1017.1
20260902031505 18 70 1.6 0.0 0.00 0.00 0.28 100 1017.1
20260902023100 18 53 3.2 0.0 0.00 0.00 0.28 100 1017.3
20260902021554 18 57 1.6 0.0 0.00 0.00 0.28 100 1017.4
20260902020046 19 68 1.6 0.0 0.00 0.00 0.28 100 1017.3
20260902013038 19 59 3.2 0.0 0.00 0.00 0.28 100 1017.1
20260902011534 19 59 3.2 0.0 0.00 0.00 0.28 100 1016.9
20260902010041 19 42 0.0 0.0 0.00 0.00 0.28 100 1016.8
20260902003021 19 34 0.0 0.0 0.00 0.00 0.28 100 1016.2
20260902001517 19 33 1.6 0.0 0.00 0.00 0.28 100 1016.2
20260902000022 19 61 1.6 0.0 0.00 0.00 0.28 100 1016.0
20260901233010 19 63 4.8 0.0 0.00 0.00 0.28 100 1016.2
20260901231502 20 27 0.0 0.0 0.00 0.00 0.28 100 1016.2
20260901230058 20 20 1.6 0.0 0.00 0.00 0.28 100 1015.8
20260901223051 20 31 1.6 0.0 0.00 0.00 0.28 100 1016.0
20260901221615 20 41 0.0 0.0 0.00 0.00 0.28 100 1016.1
20260901220042 20 45 3.2 0.0 0.00 0.00 0.28 100 1016.3
20260901213058 20 57 1.6 0.0 0.00 0.00 0.28 100 1015.5
20260901211541 20 23 1.6 0.0 0.00 0.00 0.28 100 1015.7
20260901210037 20 43 1.6 0.0 0.00 0.00 0.28 100 1015.7
20260901203032 20 53 1.6 0.0 0.00 0.00 0.28 100 1015.4
20260901201516 20 60 0.0 0.0 0.00 0.00 0.25 100 1015.5
20260901200025 20 59 0.0 0.0 0.00 0.00 0.23 100 1015.4
20260901193008 21 77 3.2 0.0 0.00 0.00 0.23 100 1015.3
20260901191503 22 189 0.0 0.0 0.00 0.00 0.23 100 1015.2
20260901190059 22 202 0.0 0.0 0.00 0.00 0.23 100 1015.1
20260901183051 22 202 0.0 0.0 0.00 0.00 0.20 100 1015.0
20260901181543 23 202 0.0 0.0 0.00 0.00 0.18 100 1014.9
20260901180039 23 202 0.0 0.0 0.00 0.00 0.18 5 1014.9
20260901173034 23 202 1.6 0.0 0.00 0.00 0.18 8 1014.7
20260901171530 23 213 1.6 0.0 0.00 0.00 0.18 6 1014.6
20260901170023 23 199 3.2 0.0 0.00 0.00 0.18 100 1014.6
20260901163017 22 203 3.2 0.0 0.00 0.00 0.18 100 1014.7
20260901161513 22 208 3.2 0.0 0.00 0.00 0.18 100 1014.9
20260901160008 22 211 3.2 0.0 0.00 0.00 0.18 100 1015.0
20260901153109 22 213 1.6 0.0 0.00 0.00 0.18 100 1015.3
20260901151556 21 212 0.0 0.0 0.00 0.00 0.18 100 1015.6
20260901150051 21 212 0.0 0.0 0.00 0.00 0.18 100 1015.3
20260901144647 20 212 0.0 0.0 0.00 0.00 0.18 100 1015.3
20260901143052 20 212 0.0 0.0 0.00 0.00 0.18 100 1015.6
20260901141553 20 212 0.0 0.0 0.00 0.00 0.18 100 1015.7
20260901140042 20 212 0.0 0.0 0.00 0.00 0.18 100 1015.6
20260901134635 20 212 1.6 0.0 0.00 0.00 0.18 100 1015.5
20260901133039 20 202 0.0 0.0 0.00 0.00 0.18 100 1015.5
20260901131529 20 202 0.0 0.0 0.00 0.00 0.18 100 1015.7
20260901130026 20 200 1.6 0.0 0.00 0.00 0.18 100 1015.8
20260901124624 20 199 0.0 0.0 0.00 0.00 0.18 100 1015.8
20260901123019 20 199 0.0 0.0 0.00 0.00 0.18 100 1016.2
20260901121509 19 199 0.0 0.0 0.00 0.00 0.18 100 1016.2
20260901120017 19 199 0.0 0.0 0.00 0.00 0.18 100 1016.2
20260901114602 -17 0.0 0.0 0.00 0.00 0.18 1016.3
20260901113103 -17 0.0 0.0 0.00 0.00 0.18 1016.2
20260901111553 -17 0.0 0.0 0.00 0.00 0.18 1016.1
20260901110056 -17 0.0 0.0 0.00 0.00 0.18 1016.1
20260901104545 -17 0.0 0.0 0.00 0.00 0.18 1016.1
20260901103048 -17 0.0 0.0 0.00 0.00 0.18 1016.0
20260901101536 -17 0.0 0.0 0.00 0.00 0.18 1016.0
20260901100032 18 199 0.0 0.0 0.00 0.00 0.18 100 1015.8
20260901094529 18 199 1.6 0.0 0.00 0.00 0.18 100 1015.9
20260901093026 18 199 0.0 0.0 0.00 0.00 0.18 100 1015.8
20260901091523 18 199 3.2 0.0 0.00 0.00 0.18 100 1015.8
20260901090018 18 198 0.0 0.0 0.00 0.00 0.15 100 1015.8
20260901084513 18 198 0.0 0.0 0.00 0.00 0.15 100 1015.8
20260901083022 18 198 0.0 0.0 0.00 0.00 0.15 100 1015.8
20260901081510 18 198 0.0 0.0 0.00 0.00 0.15 100 1015.9
20260901080006 17 198 0.0 0.0 0.00 0.00 0.15 100 1016.0
20260901074502 17 198 0.0 0.0 0.00 0.00 0.15 100 1016.2
20260901073056 17 198 0.0 0.0 0.00 0.00 0.15 100 1016.4
20260901071559 17 198 0.0 0.0 0.00 0.00 0.13 100 1016.5
20260901070047 17 198 0.0 0.0 0.00 0.00 0.05 100 1016.6
20260901064543 17 198 0.0 0.0 0.00 0.00 0.05 100 1016.7
20260901063039 17 198 0.0 0.0 0.00 0.00 0.05 100 1016.7
20260901061535 17 198 0.0 0.0 0.00 0.00 0.03 100 1016.9
20260901060031 17 198 0.0 0.0 0.00 0.00 0.03 100 1017.1
20260901054526 17 198 0.0 0.0 0.00 0.00 0.03 100 1017.3
20260901053025 17 198 0.0 0.0 0.00 0.00 0.03 100 1017.4
20260901051521 17 198 0.0 0.0 0.00 0.00 0.03 100 1017.5
20260901050017 17 198 0.0 0.0 0.00 0.00 0.03 100 1017.4